Tracking 34408 objects as of 13-Jun-2026
HD Live streaming from Space Station
objects crossing your sky now

CZ-6A DEB

Track CZ-6A DEB now!
10-day predictions


NORAD ID: 54541
Int'l Code: 2022-151KR
Perigee: 831.4 km
Apogee: 920.0 km
Inclination: 98.9 °
Period: 102.3 minutes
Semi major axis: 7246 km
RCS: Unknown
Launch date: November 11, 2022
Source: People's Republic of China (PRC)
Launch site: Taiyaun Space Center, China (TSC)

Note: This is SATELLITE DEBRIS
Your satellite tracking list
Your tracking list is empty




NASA's NSSDC Master Catalog

Two Line Element Set (TLE):
1 54541U 22151KR  26164.53849238  .00000186  00000-0  13453-3 0  9995
2 54541  98.8622 160.3133 0061118  17.7076 342.6204 14.07328584183856
Source of the keplerian elements: AFSPC